EW2456 Weather Reports


Display with metric or nautical units.
time (UTC)temp
F
wind
direction
speed
MPH
gust
MPH
rain 1hr
in
rain 24hr
in
rain mn
in
humidity
%
barometer
mb
20260510173040 81 169 2.0 4.0 0.00 0.11 0.06 35 1013.5
20260510171539 80 153 1.0 5.0 0.01 0.11 0.06 38 1013.6
20260510170035 79 172 2.0 4.0 0.01 0.11 0.06 37 1013.7
20260510164536 80 330 1.0 6.0 0.01 0.11 0.06 38 1013.8
20260510163032 80 84 1.0 5.0 0.01 0.11 0.06 35 1013.8
20260510161533 79 14 3.0 6.0 0.00 0.10 0.05 41 1014.0
20260510160034 79 61 0.0 8.0 0.00 0.11 0.05 40 1014.0
20260510154524 77 9 1.0 5.0 0.01 0.11 0.05 39 1014.2
20260510153032 77 347 3.0 7.0 0.01 0.11 0.05 40 1014.4
20260510151521 77 5 1.0 6.0 0.01 0.11 0.05 48 1014.2
20260510150023 76 15 0.0 6.0 0.01 0.11 0.05 53 1014.2
20260510144520 75 84 1.0 6.0 0.00 0.10 0.04 55 1014.2
20260510143017 74 14 2.0 5.0 0.00 0.10 0.04 55 1014.3
20260510141521 72 327 2.0 5.0 0.01 0.10 0.04 57 1014.1
20260510140005 72 298 1.0 5.0 0.01 0.10 0.04 62 1014.2
20260510134502 71 259 1.0 4.0 0.01 0.10 0.04 63 1014.2
20260510133059 70 309 1.0 4.0 0.01 0.10 0.04 65 1014.2
20260510131556 68 239 1.0 5.0 0.00 0.09 0.03 67 1013.9
20260510130053 67 248 2.0 3.0 0.00 0.10 0.03 69 1013.8
20260510124556 66 246 2.0 5.0 0.00 0.10 0.03 70 1013.6
20260510123046 65 249 1.0 4.0 0.00 0.10 0.03 73 1013.6
20260510121542 64 246 2.0 3.0 0.00 0.10 0.03 74 1013.4
20260510120040 63 244 2.0 5.0 0.00 0.10 0.03 79 1013.4
20260510114540 62 229 2.0 5.0 0.00 0.10 0.03 80 1013.2
20260510113036 61 232 1.0 3.0 0.01 0.10 0.03 81 1013.0
20260510111531 61 227 0.0 0.0 0.01 0.10 0.03 81 1012.7
20260510110034 61 227 0.0 0.0 0.01 0.10 0.03 81 1012.6
20260510104533 60 227 0.0 0.0 0.01 0.10 0.03 81 1012.3
20260510103027 60 227 0.0 0.0 0.00 0.09 0.02 80 1012.1
20260510101523 60 227 0.0 0.0 0.00 0.09 0.02 80 1011.9
20260510100022 61 227 0.0 0.0 0.00 0.09 0.02 80 1011.7
20260510094533 61 227 0.0 0.0 0.00 0.09 0.02 81 1011.7
20260510093018 60 227 0.0 0.0 0.00 0.09 0.02 81 1011.4
20260510091517 60 227 0.0 0.0 0.01 0.09 0.02 81 1011.1
20260510090017 60 227 0.0 0.0 0.01 0.10 0.02 81 1011.0
20260510084516 60 227 0.0 0.0 0.01 0.10 0.02 80 1010.8
20260510083016 60 227 0.0 0.0 0.01 0.10 0.02 81 1010.9
20260510081531 60 227 0.0 2.0 0.00 0.09 0.01 81 1010.9
20260510080015 60 227 0.0 0.0 0.00 0.09 0.01 80 1010.7
20260510074514 59 227 0.0 0.0 0.00 0.09 0.01 80 1010.8
20260510073015 60 227 0.0 0.0 0.00 0.09 0.01 80 1010.7
20260510071512 60 227 0.0 0.0 0.00 0.09 0.01 80 1010.6
20260510070011 60 227 0.0 0.0 0.00 0.09 0.01 80 1010.5
20260510064513 60 227 0.0 0.0 0.00 0.09 0.01 80 1010.7
20260510063010 60 227 0.0 0.0 0.00 0.09 0.01 78 1010.6
20260510061509 60 227 0.0 0.0 0.00 0.09 0.01 78 1010.5
20260510060006 60 227 0.0 0.0 0.01 0.09 0.01 77 1010.6
20260510054502 61 227 0.0 0.0 0.01 0.09 0.01 78 1010.9
20260510053001 61 227 0.0 0.0 0.01 0.09 0.01 78 1010.9
20260510051601 61 227 0.0 0.0 0.01 0.09 0.01 78 1011.1
20260510050059 62 227 0.0 0.0 0.00 0.08 0.00 79 1011.1
20260510044557 61 227 0.0 0.0 0.00 0.08 0.00 78 1011.3
20260510043056 61 227 0.0 0.0 0.00 0.08 0.00 79 1011.3
20260510041624 61 227 0.0 0.0 0.00 0.08 0.00 79 1011.1
20260510040051 61 227 0.0 0.0 0.00 0.09 0.08 77 1011.2
20260510034557 61 227 0.0 0.0 0.00 0.09 0.08 77 1011.0
20260510033100 61 227 0.0 0.0 0.01 0.09 0.08 73 1010.9
20260510031555 61 227 0.0 0.0 0.01 0.09 0.08 71 1010.9
20260510030050 62 227 0.0 0.0 0.01 0.09 0.08 71 1010.8
20260510024606 62 227 0.0 0.0 0.01 0.09 0.08 71 1010.9
20260510023055 62 227 0.0 0.0 0.00 0.08 0.07 70 1010.7
20260510021549 62 227 0.0 0.0 0.00 0.08 0.07 69 1010.7
20260510020049 63 227 0.0 0.0 0.00 0.08 0.07 70 1010.4
20260510014601 63 227 0.0 0.0 0.00 0.08 0.07 69 1010.6
20260510013100 64 227 0.0 0.0 0.00 0.08 0.07 70 1010.0
20260510011547 65 227 0.0 0.0 0.00 0.08 0.07 68 1009.8
20260510010046 66 227 0.0 0.0 0.00 0.08 0.07 68 1009.7
20260510004549 67 227 0.0 0.0 0.00 0.08 0.07 67 1009.6
20260510003048 68 227 0.0 0.0 0.01 0.08 0.07 66 1009.5
20260510001545 69 227 0.0 0.0 0.01 0.08 0.07 64 1009.6
20260510000046 70 227 0.0 3.0 0.01 0.09 0.07 63 1009.6
20260509234544 70 226 1.0 4.0 0.01 0.09 0.07 62 1009.4
20260509233046 71 355 1.0 3.0 0.00 0.08 0.06 62 1009.2
20260509231549 71 223 1.0 4.0 0.00 0.08 0.06 61 1009.0
20260509230042 72 221 1.0 4.0 0.00 0.08 0.06 60 1008.8
20260509224541 72 243 1.0 5.0 0.00 0.08 0.06 59 1008.7
20260509223046 72 250 2.0 5.0 0.01 0.08 0.06 58 1008.9
20260509221544 72 219 3.0 7.0 0.01 0.08 0.06 59 1008.8
20260509220044 72 219 3.0 7.0 0.01 0.09 0.06 59 1009.0
20260509214540 72 202 3.0 8.0 0.01 0.09 0.06 58 1008.8
20260509213039 72 200 2.0 6.0 0.00 0.08 0.05 58 1008.7
20260509211540 72 242 4.0 7.0 0.00 0.08 0.05 58 1008.7
20260509210050 72 248 4.0 9.0 0.00 0.08 0.05 57 1008.8
20260509204538 73 191 3.0 10.0 0.00 0.08 0.05 56 1008.5
20260509203035 71 211 1.0 6.0 0.00 0.08 0.05 61 1008.7
20260509201533 71 232 3.0 7.0 0.00 0.08 0.05 59 1008.8
20260509200032 71 218 3.0 5.0 0.01 0.09 0.05 59 1008.9
20260509194533 71 239 2.0 4.0 0.01 0.09 0.05 58 1009.0
20260509193029 71 240 2.0 4.0 0.01 0.09 0.05 58 1009.2
20260509191529 71 220 3.0 6.0 0.01 0.09 0.05 57 1009.5
20260509190035 71 196 2.0 5.0 0.00 0.08 0.04 57 1009.3
20260509184533 70 172 3.0 8.0 0.00 0.08 0.04 57 1009.5
20260509183024 70 207 2.0 7.0 0.00 0.08 0.04 56 1009.6
20260509181523 71 194 4.0 9.0 0.01 0.08 0.04 55 1009.7
20260509180023 71 216 4.0 7.0 0.01 0.09 0.04 55 1010.1
20260509174518 71 217 4.0 8.0 0.01 0.09 0.04 54 1010.3